This demonstration page uses our WeatherBlox Daily Observations layout. Learn more.

Left ArrowRight Arrow

Hourly Observations for November 29, 2022

Temp ( °F °C ) Dew Point ( °F °C ) Humidity (%) Winds ( mph kmh ) Pressure ( in mb ) Visibility ( mi km ) Precip ( " mm )
12:56 am 00:56 Clear 51 10.6 43 6.1 74 74 S 26 43 29.42 996 10 16 0.00 0.00
1:56 am 01:56 Clear 52 11.1 43 6.1 71 71 S 28 44 29.38 995 10 16 0.00 0.00
2:56 am 02:56 Clear 53 11.7 43 6.1 68 68 S 30 48 29.36 994 10 16 0.00 0.00
3:56 am 03:56 Clear 52 11.1 41 5 66 66 SSW 28 44 29.35 994 10 16 0.00 0.00
4:56 am 04:56 Clear 50 10 40 4.4 68 68 SSW 22 35 29.36 994 10 16 0.00 0.00
5:56 am 05:56 Clear 48 8.9 38 3.3 68 68 SW 18 30 29.40 996 10 16 0.00 0.00
6:56 am 06:56 Clear 46 7.8 34 1.1 63 63 WSW 22 35 29.44 997 10 16 0.00 0.00
7:31 am 07:31 Partly Cloudy 39 4 37 3 93 93 W 22 35 29.54 1000 10 16 0.00 0.00
7:40 am 07:40 Mostly Cloudy 39 4 39 4 100 100 WNW 16 26 29.54 1000 10 16 0.00 0.00
7:56 am 07:56 Cloudy 41 5 39 3.9 93 93 WNW 16 26 29.51 999 10 16 0.00 0.00
8:07 am 08:07 Cloudy 41 5 37 3 87 87 WNW 17 28 29.56 1001 10 16 0.00 0.00
8:22 am 08:22 Cloudy 39 4 36 2 87 87 WNW 23 37 29.58 1002 10 16 0.00 0.00
8:48 am 08:48 Cloudy 39 4 32 0 75 75 NW 23 37 29.61 1003 10 16 0.00 0.00
8:56 am 08:56 Cloudy 39 3.9 31 -0.6 72 72 NW 21 33 29.57 1002 10 16 0.00 0.00
9:56 am 09:56 Cloudy 37 2.8 30 -1.1 75 75 NW 23 37 29.64 1004 10 16 0.00 0.00
10:31 am 10:31 Cloudy 36 2 30 -1 80 80 NNW 26 43 29.72 1006 10 16 0.00 0.00
10:56 am 10:56 Cloudy 34 1.1 31 -0.6 88 88 NNW 25 41 29.68 1005 10 16 0.00 0.00
11:56 am 11:56 Cloudy 34 1.1 29 -1.7 82 82 N 23 37 29.72 1006 10 16 0.00 0.00
12:56 pm 12:56 Cloudy 33 0.6 29 -1.7 85 85 NNW 23 37 29.75 1007 10 16 0.00 0.00
1:39 pm 13:39 Cloudy 34 1 27 -3 75 75 NNW 30 48 29.84 1010 10 16 0.00 0.00
1:56 pm 13:56 Cloudy 32 0 25 -3.9 75 75 NNW 28 44 29.80 1009 10 16 0.00 0.00
2:56 pm 14:56 Cloudy 32 0 23 -5 69 69 NNW 24 39 29.83 1010 10 16 0.00 0.00
3:56 pm 15:56 Cloudy 31 -0.6 22 -5.6 69 69 NNW 24 39 29.90 1013 10 16 0.00 0.00
4:07 pm 16:07 Cloudy 30 -1 21 -6 69 69 NNW 23 37 29.98 1015 10 16 0.00 0.00
4:56 pm 16:56 Cloudy 30 -1.1 22 -5.6 71 71 NNW 22 35 29.96 1014 10 16 0.00 0.00
5:24 pm 17:24 Mostly Cloudy 28 -2 21 -6 74 74 NNW 20 31 30.06 1018 10 16 0.00 0.00
5:56 pm 17:56 Cloudy 29 -1.7 20 -6.7 69 69 NNW 21 33 30.00 1016 10 16 0.00 0.00
6:56 pm 18:56 Mostly Clear 29 -1.7 21 -6.1 72 72 NNW 18 30 30.05 1018 10 16 0.00 0.00
7:56 pm 19:56 Mostly Clear 29 -1.7 19 -7.2 66 66 NNW 15 24 30.10 1019 10 16 0.00 0.00
8:56 pm 20:56 Clear 28 -2.2 17 -8.3 63 63 NW 15 24 30.16 1021 10 16 0.00 0.00
9:56 pm 21:56 Clear 27 -2.8 16 -8.9 63 63 NW 17 28 30.20 1023 10 16 0.00 0.00
10:56 pm 22:56 Clear 25 -3.9 15 -9.4 65 65 NNW 13 20 30.24 1024 10 16 0.00 0.00
11:56 pm 23:56 Clear 24 -4.4 14 -10 65 65 NW 8 13 30.26 1025 10 16 0.00 0.00

Powered by Vaisala Xweather